[Iaude] MPEC B23: 2024 BC [a=2.11,e=0.66,i=13.5,H=27.0]
    mpec at marsden.cfa.harvard.edu 
    mpec at marsden.cfa.harvard.edu
       
    Wed Jan 17 20:06:30 EST 2024
    
    
  
M.P.E.C. 2024-B23                              Issued 2024 January 18, 01:04 UT
     The Minor Planet Electronic Circulars contain information on unusual
         minor planets, routine data on comets and natural satellites,
         and occasional editorial announcements.  They are published
    on behalf of Division F of the International Astronomical Union by the
          Minor Planet Center, Smithsonian Astrophysical Observatory,
                          Cambridge, MA 02138, U.S.A.
			  
             Prepared using the Tamkin Foundation Computer Network
                              MPC at CFA.HARVARD.EDU
            URL https://www.minorplanetcenter.net/    ISSN 1523-6714
                                    2024 BC                                     
Observations:
     K24B00C* C2024 01 17.04575 08 26 19.61 +36 44 47.5          20.4 GVEB023K88
     K24B00C  C2024 01 17.04873 08 26 20.58 +36 44 18.7          19.8 GVEB023K88
     K24B00C  C2024 01 17.05172 08 26 21.69 +36 43 49.9          20.4 GVEB023K88
     K24B00C KC2024 01 17.06551108 26 26.18 +36 41 35.2          20.0 RoEB023K88
     K24B00C KC2024 01 17.06851808 26 27.13 +36 41 05.0          20.0 RoEB023K88
     K24B00C KC2024 01 17.07032208 26 27.78 +36 40 47.8          20.3 RoEB023K88
     K24B00C 1C2024 01 17.08400 08 26 34.59 +36 38 27.2          21.6 VXEB023033
     K24B00C 1C2024 01 17.08476 08 26 34.85 +36 38 19.8          21.8 VXEB023033
     K24B00C 1C2024 01 17.08551 08 26 35.09 +36 38 12.3          21.6 VXEB023033
     K24B00C 1C2024 01 17.08681 08 26 35.52 +36 37 59.6          21.5 VXEB023033
     K24B00C KC2024 01 17.09729308 26 37.08 +36 36 16.6          20.1 RoEB023K88
     K24B00C KC2024 01 17.10124508 26 38.51 +36 35 38.1          20.1 RoEB023K88
     K24B00C KC2024 01 17.10519808 26 39.82 +36 34 56.9          20.3 RoEB023K88
     K24B00C KC2024 01 17.10934008 26 41.34 +36 34 14.7          20.1 RoEB023K88
     K24B00C KC2024 01 17.11329308 26 42.83 +36 33 33.5          20.2 RoEB023K88
     K24B00C KC2024 01 17.21982608 27 52.888+36 16 46.38         19.85GVEB023V06
     K24B00C KC2024 01 17.22082208 27 53.240+36 16 36.55         19.97GVEB023V06
     K24B00C KC2024 01 17.22181808 27 53.615+36 16 26.54         19.98GVEB023V06
     K24B00C KC2024 01 17.22281108 27 53.989+36 16 16.68         20.09GVEB023V06
     K24B00C  C2024 01 17.22589508 27 56.433+36 15 26.43         20.3 GVEB023654
     K24B00C  C2024 01 17.23371308 27 59.395+36 14 08.44         20.3 GVEB023654
     K24B00C KC2024 01 17.84623308 33 39.422+33 55 53.15         19.6 GVEB023J95
     K24B00C KC2024 01 17.85325408 33 43.889+33 53 59.78         19.9 GVEB023J95
Observer details:
033 Karl Schwarzschild Observatory, Tautenburg.  Observers S. Melnikov, C.
    Hogner, F. Ludwig, M. Hartmann, B. Stecklum.  Measurer B. Stecklum.
    1.34-m f/3 Schmidt + CCD.
654 Table Mountain Observatory, Wrightwood-PHMC.  Observers N. Evans, P. Choi,
    N. Saini, C. Zhai, R. Trahan, M. Shao.  1.0-m Reflector + CCD.
J95 Great Shefford.  Observer P. Birtwhistle.  0.41-m f/6.3 Schmidt-Cassegrain
    + CCD.
K88 GINOP-KHK, Piszkesteto.  Observer K. Sarneczky.  0.60-m Schmidt + CCD.
V06 Catalina Sky Survey-Kuiper.  Observer G. J. Leonard.  Measurers T. Beuden,
    V. F. Carvajal, D. Fay, J. B. Fazekas, D. C. Fuls, A. R. Gibbs, A. D.
    Grauer, H. Groeller, J. K. Hogan, R. A. Kowalski, S. M. Larson, G. J.
    Leonard, D. Rankin, R. L. Seaman, F. C. Shelly, K. W. Wierzchos.  1.55-m
    reflector + 1K CCD.
Orbital elements:
2024 BC                                                  Earth MOID = 0.0037 AU
Epoch 2023 Sept. 13.0 TT = JDT 2460200.5                Veres                   
M 304.52524              (2000.0)            P               Q                  
n   0.32236594     Peri.  251.68217     -0.96096566     +0.18573917             
a   2.1065412      Node   298.57751     -0.06372190     -0.86980813             
e   0.6562340      Incl.   13.50310     -0.26922950     -0.45709384             
P   3.06           H   27.09          G   0.15           U   8                  
Residuals in seconds of arc
240117 K88  0.9-  0.1-    240117 033  0.0   0.1+    240117 V06  0.2-  0.1+
240117 K88  0.9-  0.1-    240117 033  0.2-  0.4+    240117 V06  0.1-  0.0
240117 K88  0.7+  0.1+    240117 K88  0.2+  0.9-    240117 V06  0.1+  0.0
240117 K88  0.2-  0.1-    240117 K88  0.6+  0.8+    240117 654  0.1-  0.0
240117 K88  0.8-  0.6-    240117 K88  0.5-  0.1-    240117 654  0.2+  0.0
240117 K88  0.3-  0.0     240117 K88  0.0   0.2+    240117 J95  0.0   0.1-
240117 033  0.2+  0.0     240117 K88  0.8+  0.4-    240117 J95  0.0   0.1+
240117 033  0.2+  0.2+    240117 V06  0.0   0.0
Ephemeris:
2024 BC                  a,e,i = 2.11, 0.66, 14                  q = 0.7242
Date    TT    R. A. (2000) Decl.     Delta      r    Elong.  Phase     V
2023 12 19    07 56 12.0 +42 10 52   0.3746  1.3138   146.9    24.1    26.7
...
2024 01 03    08 05 20.5 +42 46 32   0.1915  1.1595   154.9    21.1    24.9
...
2024 01 11    08 10 52.3 +41 58 31   0.1009  1.0776   157.9    20.1    23.3
...
2024 01 17    08 26 07.1 +36 52 55   0.03517 1.0173   162.4    17.0    20.8
2024 01 18    08 35 11.9 +33 13 18   0.02446 1.0074   164.8    14.8    19.9
2024 01 19    08 55 01.7 +23 52 01   0.01408 0.9976   167.0    12.8    18.6
...
2024 01 25    19 42 41.5 -49 54 49   0.05285 0.9399    31.9   146.4    28.4
...
2024 02 02    19 56 45.9 -46 08 46   0.1413  0.8684    31.8   143.3    29.8
...
2024 02 17    20 10 01.6 -42 27 34   0.3183  0.7637    38.2   126.8    29.4
M. P. C. Staff               (C) Copyright 2024 MPC           M.P.E.C. 2024-B23
    
    
More information about the Iaude
mailing list